map of CUZ home
CUZ - Airport
Location
City:  Cusco, Cuzco, Perú
Near (Alt.):Cuzco
Name:Teniente FAP Alejandro Velasco Astete International Airport
ICAO:SPZO
IATA:CUZ

Details
Type:Airport (Aerodrome, Airfield)
Use:Public/Civil, International (customs port of entry)
Latitude:13°32'09"S (-13.535721)
Longitude:71°56'20"W (-71.938777)
Elevation:10860 ft (3310 m)
Variation:5.74°W (WMM2015 magnetic declination)
-0.18° annual change
Runways:1
Longest:11155 × 148 ft (3400 × 45 m), paved

Time
Time Zone:UTC-5
Local Time:

Weather
METAR:SPZO 101330Z VRB01KT 9999 NSC 14/M06 Q1036 NOSIG RMK BIRD HAZARD RWY 28
TAF:SPZO 101100Z 1012/1112 00000KT 9999 NSC TX24/1019Z TN05/1111Z
FM101800 36012KT 9999 SCT050
BECMG 1022/1100 00000KT

Related Locations
Nearby:
Farthest:PXU: 12446 mi / 20031 km
Pleiku, VN

Find:

   beyond  
but within

Other Information
Maps:
NOTAMs:
Links:
Sources:

  
  • flag of Perú
  • flag of Cuzco
  

Sectional Chart

Flight Planning
at skyvector.com

Satellite Image

Google Maps Satellite view

 

Copyright © 2004-2018 Karl L. Swartz. All rights reserved.
The Great Circle Mapper name and logo are trademarks of the Great Circle Mapper.
All other trademarks mentioned herein belong to their respective owners.
Please see credits for attibutions and further copyright information.

  Follow gcmap on Facebook Follow gcmap on Twitter Follow gcmap on Google+ GCmap on LinkedIn

hCard Microformat

Geo Microformat